Wind_Speed
12 9 12 16 17 18 9 11 14 15 8 6 10 13 16 18 15 14 14 13 12 10 14 12 6 5 6 7 7 8 10 11 11 10 10 11 11 10 10 12 13 15 17 18
13 15 16 17 10 9 10 15 17 18 18 18 14 15 15 12 20 18 17 15 14 12 11 10 8 5 4 6 6 7 8 10 11 10 10 9 8 8 9 12 12 15 16 16
17 15 4 6 11 12 14 15 16 20 20 23 18 18 17 17 17 18 15 16 15 15 13 11 7 5 4 5 5 7 8 9 11 11 9 11 9 10 13 14 16 16 16 16
14 17 17 14 15 14 18 17 20 19 16 15 15 18 17 18 13 19 17 15 13 12 11 11 9 7 4 4 5 7 7 8 9 10 10 12 12 11 13 13 15 14 15 16
9 9 8 14 14 14 18 9 14 11 14 16 20 11 22 15 15 19 17 15 12 12 10 9 7 9 5 4 5 6 5 7 8 9 10 11 12 11 12 14 14 16 16 17
16 14 15 12 10 12 13 9 14 14 12 14 20 15 19 16 15 2 18 16 12 13 12 12 12 7 7 5 5 5 5 7 8 9 10 11 12 12 13 16 16 17 16 18
16 19 18 15 14 11 12 9 7 6 8 12 17 16 14 14 9 6 20 19 15 14 12 10 10 10 7 3 4 3 4 7 8 8 10 11 12 11 12 14 15 16 18 20
10 10 12 11 13 11 13 12 9 14 11 13 21 14 15 9 7 6 12 17 17 14 11 10 11 9 10 5 5 5 5 6 8 8 9 10 11 12 11 13 15 16 17 18
5 7 7 7 3 6 7 12 14 16 16 13 14 22 20 11 12 15 15 14 11 11 10 10 9 8 6 4 5 6 6 6 9 9 9 10 11 12 12 12 14 16 16 16
6 11 13 10 8 12 13 13 12 10 14 17 15 19 6 7 9 10 8 9 7 11 11 10 9 6 7 4 4 7 6 8 7 8 10 11 11 12 12 11 13 14 14 16
7 8 12 14 13 15 12 14 14 15 12 13 14 10 6 6 4 10 11 10 9 8 10 8 9 5 6 5 6 6 6 6 6 7 9 11 12 11 11 10 11 12 13 15
9 5 10 15 14 16 15 17 17 12 16 12 12 12 9 2 2 6 15 10 9 9 9 10 11 8 6 5 5 3 4 4 5 7 8 9 10 10 9 10 9 10 12 14
6 4 8 10 12 17 14 17 19 13 13 18 12 14 5 1 3 6 12 14 11 11 8 5 7 8 10 7 5 3 3 3 6 6 7 8 9 8 8 7 9 10 10 13
2 9 12 12 13 16 21 22 22 18 8 14 15 15 14 6 10 10 16 16 15 13 12 8 6 6 8 7 6 4 3 5 8 6 8 6 5 6 6 7 6 10 9 14
5 15 15 20 21 21 23 24 23 21 21 19 19 20 16 10 14 10 14 14 15 15 14 12 9 11 9 8 7 5 2 2 3 2 3 6 5 6 6 7 7 9 8 10
11 16 15 24 20 21 25 25 24 24 23 23 22 24 13 11 8 11 15 15 14 12 12 11 11 13 13 10 8 7 6 4 3 4 3 6 5 6 7 7 9 11 12 12
14 13 14 23 16 17 16 11 18 21 21 19 17 15 11 2 9 14 14 15 15 15 12 13 13 14 12 10 8 8 6 5 5 4 5 5 6 7 9 10 11 11 12 13
18 17 13 14 14 17 10 16 17 18 17 13 15 14 13 13 12 15 15 16 15 15 16 14 15 15 13 12 9 8 7 7 7 6 6 6 7 8 10 10 11 12 11 13
18 13 8 9 11 17 23 20 16 8 14 17 14 13 10 4 10 13 17 17 17 16 16 16 17 16 14 13 11 10 9 9 8 7 7 7 7 8 9 10 10 10 11 12
18 14 10 9 10 14 12 4 10 16 10 8 10 11 9 10 7 7 12 15 15 20 19 19 19 17 15 12 11 13 11 11 9 6 6 7 7 8 9 9 9 10 10 11
10 11 15 12 11 11 14 20 5 6 2 7 8 9 6 6 2 9 12 15 20 20 20 21 19 16 14 15 13 15 12 11 9 8 5 6 7 9 8 8 10 10 10 10
9 7 9 13 14 15 13 12 5 2 4 5 5 6 12 11 14 16 15 15 17 19 21 20 18 17 16 14 15 16 14 11 9 8 8 7 9 8 8 8 9 9 9 9
6 10 7 7 4 9 13 2 7 4 2 2 2 9 13 13 13 14 14 14 16 19 20 19 18 18 16 14 15 16 14 12 11 10 9 8 9 8 7 8 8 8 8 9
11 10 4 9 7 10 3 4 5 2 2 3 6 13 12 12 14 14 13 13 15 17 16 18 19 18 17 16 14 12 13 12 11 9 7 7 6 5 5 4 6 6 8 7
5 5 7 6 11 11 4 8 4 7 3 5 9 12 12 14 14 14 14 13 18 18 16 19 18 17 17 16 15 16 15 14 11 9 7 6 3 4 0 2 5 3 7 8
8 11 7 8 8 7 8 1 3 6 7 8 11 12 14 15 14 14 13 18 20 20 18 18 17 17 17 16 16 15 15 14 12 10 8 7 4 2 1 2 5 5 6 7
Wind_Direction
234 239 248 254 263 255 305 296 291 299 302 223 258 275 272 178 197 203 197 196 196 184 128 143 135 127 120 81 59 43 37 29 27 20 12 11 7 8 19 17 17 15 10 5
243 242 254 285 302 302 283 283 284 284 276 274 248 253 274 228 193 206 199 195 192 182 145 152 150 122 77 76 61 58 47 37 27 15 12 6 0 10 24 17 13 14 12 10
259 263 164 297 295 270 264 267 277 282 290 288 291 258 262 253 199 197 204 197 190 185 165 154 156 132 119 83 55 55 47 39 29 17 17 15 24 21 18 11 11 5 10 12
272 275 264 288 282 265 273 285 292 304 308 290 270 288 279 285 213 183 201 195 190 172 166 148 151 147 89 77 68 56 52 44 31 25 29 30 25 17 7 8 2 7 9 11
245 282 265 278 272 279 276 327 314 318 300 303 277 283 286 293 283 190 192 186 178 138 132 136 146 115 80 70 61 49 57 52 35 32 33 32 27 17 3 6 4 6 7 8
261 273 283 255 267 291 303 309 289 276 263 259 279 270 273 281 279 336 176 170 154 143 135 112 105 122 107 85 65 56 42 53 35 30 31 31 25 17 9 8 7 1 3 4
240 241 244 243 253 270 254 254 274 268 255 254 264 263 259 288 50 345 159 159 148 129 126 131 149 143 101 86 98 93 52 59 35 28 29 27 21 20 14 11 3 0 1 1
281 277 250 190 211 246 271 246 243 276 285 296 301 288 298 73 33 328 145 126 124 131 135 141 125 125 121 115 57 49 49 52 37 28 28 29 23 17 18 8 6 7 2 355
303 269 143 125 221 249 258 245 265 273 274 278 273 276 268 123 72 60 85 96 122 134 128 112 110 107 101 89 66 58 37 45 37 23 24 31 23 16 15 9 10 4 358 353
278 276 278 290 209 230 244 274 287 276 276 267 272 285 325 48 110 122 123 131 142 147 135 131 101 74 88 72 65 66 46 49 31 23 22 27 22 17 13 11 13 2 358 359
291 280 274 278 252 258 267 255 250 244 248 265 273 274 104 63 118 185 163 155 164 146 135 110 118 150 92 68 59 60 51 51 36 25 19 20 21 18 14 13 16 5 3 5
268 291 276 266 278 289 289 278 276 269 281 282 267 261 271 58 306 171 167 158 152 144 126 149 165 147 122 108 87 67 73 61 43 34 25 18 21 20 13 16 6 10 13 12
352 272 270 272 256 237 239 258 258 260 269 262 278 277 32 45 259 202 151 156 141 113 89 71 133 157 144 138 134 129 94 66 63 49 34 24 24 21 16 15 12 21 20 18
360 262 263 268 282 307 296 291 294 296 277 284 267 277 288 240 212 184 149 167 165 151 158 171 177 181 148 142 141 146 141 68 72 78 37 21 38 32 21 21 28 38 33 26
235 258 266 272 280 284 278 275 275 275 282 281 291 285 283 252 210 214 160 161 164 170 169 168 178 180 173 164 166 160 142 145 93 63 43 32 31 43 33 33 41 35 43 36
230 261 266 271 270 274 275 272 266 260 260 264 272 274 289 54 141 158 159 159 170 168 159 170 177 188 170 165 175 154 130 108 101 73 51 45 39 41 42 44 46 46 43 36
271 268 256 266 282 287 278 276 281 282 282 284 283 304 325 15 191 187 172 180 176 169 168 183 180 178 160 147 149 143 126 122 101 87 70 53 53 54 49 48 46 48 46 43
254 258 270 279 280 270 279 270 279 256 265 262 275 283 287 275 208 185 172 180 175 172 176 176 167 161 151 146 145 136 133 124 111 93 85 69 65 61 58 56 52 49 49 45
231 242 261 253 258 277 284 279 288 204 274 242 285 312 316 104 87 132 157 165 172 170 161 160 152 151 149 149 150 144 136 124 112 103 89 75 66 67 61 55 53 49 49 43
220 208 232 254 260 262 269 357 3 322 270 22 353 334 127 149 178 164 152 165 149 146 149 145 149 148 140 145 144 139 120 122 110 93 79 85 69 66 60 50 42 46 47 42
197 198 221 234 248 270 281 295 154 258 340 6 354 326 141 171 72 135 143 126 138 139 145 143 147 145 135 135 147 136 141 144 151 114 104 85 72 60 49 47 39 31 39 38
191 214 214 231 251 266 252 258 254 58 95 15 347 58 83 92 106 122 129 131 137 137 141 153 152 149 150 148 150 149 151 147 143 130 114 100 95 68 51 46 42 34 34 34
202 214 224 205 222 12 326 75 286 3 42 50 50 106 122 126 130 132 138 132 138 149 160 156 146 150 151 153 165 157 155 155 146 136 117 91 75 82 67 46 36 35 32 27
213 250 227 280 269 267 185 189 270 229 286 157 150 135 146 148 149 144 145 153 150 150 155 153 147 152 154 160 160 161 161 159 145 135 123 108 102 74 73 69 44 24 34 31
284 283 235 275 285 297 324 274 213 158 203 188 152 148 158 152 157 159 159 155 149 158 160 145 152 152 157 161 164 164 166 166 165 161 156 156 158 119 35 19 40 39 7 18
283 294 287 276 272 238 272 82 120 174 188 186 155 161 158 162 159 162 158 158 160 169 161 162 159 163 167 171 172 172 174 178 173 173 178 170 162 164 198 277 298 297 310 337
Height
769 779 780 767 756 753 759 766 766 751 743 758 761 761 756 764 773 777 777 784 789 796 805 812 817 821 820 821 822 823 823 823 822 821 821 820 821 820 820 820 819 818 818 816
776 778 765 757 755 762 767 772 770 756 747 749 751 759 754 748 760 764 769 776 784 793 804 811 818 820 823 823 823 822 823 823 824 824 823 822 821 820 820 820 821 820 818 818
777 763 754 764 766 770 769 773 772 769 756 747 749 753 754 742 741 754 761 767 775 784 798 808 815 820 822 824 826 825 825 826 826 826 825 823 820 820 821 821 820 821 819 818
771 759 760 766 771 768 778 766 765 765 772 774 750 766 746 733 730 749 757 761 770 780 792 805 813 820 825 826 827 826 827 828 829 829 827 824 824 824 824 822 821 821 820 818
778 769 773 779 775 769 775 767 773 776 781 779 765 780 737 735 736 744 750 760 769 780 793 803 812 818 825 829 830 830 829 830 830 829 828 827 826 824 824 823 822 821 819 818
768 761 766 767 768 770 767 776 778 776 781 792 770 774 758 748 736 734 744 756 770 783 794 806 814 820 826 829 831 832 832 832 831 830 829 828 827 826 824 824 823 821 820 819
770 768 762 761 773 772 774 784 797 794 788 781 753 754 744 727 741 740 739 753 771 785 795 806 816 820 826 832 832 832 832 833 832 830 829 828 828 827 827 826 824 823 820 819
777 778 755 752 766 778 773 774 789 796 788 778 755 762 743 749 747 742 739 756 773 788 799 807 815 821 825 830 834 834 833 834 833 831 830 829 829 829 828 828 825 824 822 821
774 769 750 759 764 770 775 780 767 778 771 778 765 749 733 739 757 764 771 778 788 796 805 813 822 825 828 832 835 834 836 835 834 833 832 830 830 831 830 829 827 827 825 823
771 780 761 758 759 764 770 765 782 774 789 784 765 755 753 760 771 776 791 795 801 802 811 816 826 832 830 834 835 836 836 837 836 834 833 832 831 831 832 831 829 830 827 825
770 777 776 763 767 768 765 764 762 763 770 781 779 764 753 761 764 772 784 795 799 807 811 826 829 835 833 834 835 836 837 837 838 836 834 834 832 832 833 833 831 831 830 827
771 778 782 772 756 752 755 759 758 772 771 766 768 770 752 758 760 762 779 796 797 806 814 825 832 833 834 835 835 837 837 838 837 836 836 836 834 833 835 835 834 831 830 828
779 781 788 776 763 753 759 756 755 754 756 765 773 765 751 758 761 759 773 791 801 813 821 828 830 831 831 834 835 836 837 836 836 836 836 836 836 835 836 836 834 832 830 829
788 788 791 790 777 771 770 762 759 758 772 773 767 766 763 772 766 759 772 784 794 803 815 827 833 834 831 832 833 835 835 835 835 836 836 836 837 837 837 835 833 831 830 827
788 791 789 779 774 772 767 764 761 759 753 760 750 746 741 752 767 771 770 782 794 801 809 816 824 829 830 830 831 833 833 834 834 835 836 837 837 836 836 834 832 831 829 826
780 786 785 774 773 767 762 754 748 745 743 742 742 735 727 738 753 766 773 780 792 801 807 815 819 824 825 827 828 829 832 833 834 835 836 837 837 837 835 834 833 830 829 828
782 779 781 769 770 763 764 755 747 740 736 736 740 731 730 740 746 756 768 778 789 797 805 810 815 818 821 823 826 828 830 833 834 835 836 837 837 836 835 833 832 832 831 830
783 782 780 773 773 779 749 737 734 737 732 734 730 729 730 731 733 745 762 777 786 794 799 805 810 816 818 822 826 828 830 833 834 835 837 838 837 836 835 835 834 833 832 831
771 780 788 784 771 756 746 732 731 743 741 742 723 720 716 721 739 748 760 771 781 785 794 802 809 815 818 821 825 828 830 832 834 837 837 838 837 837 836 836 835 834 833 832
758 770 785 773 771 756 734 736 738 732 740 725 725 725 726 734 741 753 763 769 775 784 793 801 809 814 818 821 824 826 829 832 836 838 838 839 839 838 838 837 836 835 834 833
758 766 773 770 768 746 731 725 730 747 742 731 732 728 728 736 743 753 761 770 779 786 795 802 809 815 819 821 824 827 831 835 836 837 839 839 839 839 839 838 838 836 835 835
754 759 756 759 759 756 728 726 745 734 731 735 735 732 746 748 751 757 766 775 783 790 798 805 810 815 819 822 824 829 832 834 836 838 838 839 838 839 840 839 839 838 837 836
748 740 740 739 737 737 736 736 736 733 733 736 737 739 747 753 759 765 773 780 788 794 800 804 809 815 819 822 826 828 831 834 836 837 838 839 839 839 840 840 840 839 838 837
735 733 740 746 725 723 721 727 730 734 735 734 736 744 749 756 763 770 777 783 789 795 799 804 809 814 818 822 825 828 831 834 836 837 838 838 839 839 840 840 841 840 839 838
734 738 734 733 726 723 723 727 724 730 735 734 736 743 749 757 764 771 776 783 790 797 800 804 809 813 818 821 824 827 830 833 835 836 836 837 838 839 840 840 840 840 839 839
730 728 731 732 727 727 725 725 724 729 733 735 739 744 749 756 762 769 775 782 790 795 800 805 809 813 816 819 823 826 828 830 832 833 834 835 837 838 839 840 839 839 838 838